Tracking 35331 objects as of 16-Sep-2026
HD Live streaming from Space Station
objects crossing your sky now

NORSAT 3

Track NORSAT 3 now!
10-day predictions


NORAD ID: 48272
Int'l Code: 2021-034E
Launch date: April 29, 2021
Source: Norway (NOR)
Launch site: FRENCH GUIANA (FRGUI)
Your satellite tracking list
Your tracking list is empty




NASA's NSSDC Master Catalog

Two Line Element Set (TLE):
1 48272U 21034E   26258.92681906  .00002415  00000-0  17014-3 0  9995
2 48272  97.5213 314.0153 0007239   6.1207 354.0107 15.05923401293493
Source of the keplerian elements: AFSPC